Voltar ao catálogo

SL-16 DEB

AtivoLEO
NORAD 22804·DEBRIS·🇷🇺 Russia

Lançado Sep 16, 1993 de Baikonur Cosmodrome

Loading…

Próximas Passagens (próximas 24 horas)

TLE

AtualizadoSource: Space-Track

Época: Sep 14, 2026, 06:39 UTC

1 22804U 93059C   26257.27776468  .00000085  00000-0  12054-3 0  9999
2 22804  70.9767  10.3005 0208951  13.6170  10.5416 13.72085941651005

Acompanhe SL-16 DEB em tempo real com AllMySat

Download on the App Store